This is the latest recevied weather packets stored in our database for station/object KB2EAR-13. If no packets are shown the sender has not sent any weather packets the latest 10 day(s).
| Time | Temp. | Humidity | Pressure | Rain* | Wind** | Luminosity | Snow |
|---|---|---|---|---|---|---|---|
| 1777823417 | 10.56° C | 47% | 1013.9 hPa | 0 mm | - | - | - |
| 1777823117 | 10.56° C | 46% | 1013.9 hPa | 0 mm | - | - | - |
| 1777822817 | 10.56° C | 46% | 1013.8 hPa | 0 mm | - | - | - |
| 1777822517 | 11.11° C | 45% | 1013.8 hPa | 0 mm | - | - | - |
| 1777822217 | 10.56° C | 48% | 1013.9 hPa | 0 mm | - | - | - |
| 1777821917 | 10° C | 49% | 1013.9 hPa | 0 mm | - | - | - |
| 1777821617 | 9.44° C | 49% | 1014.1 hPa | 0 mm | - | - | - |
| 1777821317 | 10° C | 48% | 1014.1 hPa | 0 mm | - | - | - |
| 1777821017 | 10° C | 48% | 1014.1 hPa | 0 mm | - | - | - |
| 1777820803 | 10° C | 47% | 1014.1 hPa | 0 mm | - | - | - |
| 1777820717 | 10° C | 47% | 1014.1 hPa | 0 mm | - | - | - |
| 1777820417 | 10.56° C | 46% | 1014 hPa | 0 mm | - | - | - |
| 1777820117 | 10.56° C | 45% | 1014 hPa | 0 mm | - | - | - |
| 1777819817 | 10.56° C | 48% | 1013.7 hPa | 0 mm | - | - | - |
| 1777819517 | 10° C | 46% | 1014.1 hPa | 0 mm | - | - | - |
| 1777819217 | 10.56° C | 46% | 1014 hPa | 0 mm | - | - | - |
| 1777818917 | 10.56° C | 48% | 1013.8 hPa | 0 mm | - | - | - |
| 1777818617 | 10.56° C | 49% | 1013.9 hPa | 0 mm | - | - | - |
| 1777818317 | 10.56° C | 49% | 1014.1 hPa | 0 mm | - | - | - |
| 1777818017 | 10.56° C | 49% | 1013.9 hPa | 0 mm | - | - | - |
| 1777817717 | 10° C | 51% | 1013.9 hPa | 0 mm | - | - | - |
| 1777817417 | 10° C | 50% | 1013.9 hPa | 0 mm | - | - | - |
| 1777817117 | 9.44° C | 51% | 1014 hPa | 0 mm | - | - | - |
| 1777816817 | 9.44° C | 51% | 1014 hPa | 0 mm | - | - | - |
| 1777816517 | 9.44° C | 51% | 1014.1 hPa | 0 mm | - | - | - |
* Rain latest hour (hover to see other rain measurements)
** Current wind speed in m/s (hover to see current wind gust speed)